Date String (YYYY-MM-DD hh:mm:ss) UTC,Instrument flags,absolute air pressure of the measurement (hPa),sample flow rate (lpm),inlet stack bypass flow (lpm),air temperature of the measurement (°C),ambient temperature measured by the external sensor (°C),aerosol sample conditioner tube jacket temperature (°C),OPC LED temperature (°C),internal box temperature (°C),relative humidity of the measurement (%),span deviation,mass concentration of particles derived from Lorenz-Mie calculation of OPC scattering (μg/m³),mass concentration of particles derived from Lorenz-Mie calculation of OPC scattering (μg/m³),mass concentration of particles derived from Lorenz-Mie calculation of OPC scattering (μg/m³)
DateTimeUTC,F1_M11,P_M11,Q1_M11,Q2_M11,T1_M11,T2_M11,T3_M11,T4_M11,T5_M11,U1_M11,ZSPAN_M11,X0_M11,X2_M11,X1_M11
2024-01-18 18:00:00,SystemResetWarning,0825.6,4.99,000.00,018.9,018.2,000.0,027.2,020.3,14.1,0000.0,0000.52,0000.21,0000.10
2024-01-18 18:01:00,SystemResetWarning,0825.6,4.99,000.00,018.9,018.2,000.0,027.2,020.3,13.6,0000.0,0000.44,0000.19,0000.10
2024-01-18 18:02:00,SystemResetWarning,0825.6,4.99,000.00,018.9,018.3,000.0,027.2,020.3,14.0,0000.0,0000.42,0000.18,0000.10
2024-01-18 18:03:00,SystemResetWarning,0825.7,5.00,000.00,019.0,018.3,000.0,027.2,020.3,14.0,0000.0,0000.43,0000.17,0000.10
2024-01-18 18:04:00,SystemResetWarning,0825.7,5.01,000.00,019.0,018.3,000.0,027.2,020.3,14.1,0000.0,0000.53,0000.19,0000.10
2024-01-18 18:05:00,SystemResetWarning,0825.8,5.01,000.00,019.0,018.3,000.0,027.2,020.3,13.9,0000.0,0000.57,0000.19,0000.10
2024-01-18 18:06:00,SystemResetWarning,0825.8,5.00,000.00,019.0,018.3,000.0,027.2,020.3,14.2,0000.0,0000.54,0000.18,0000.10
2024-01-18 18:07:00,SystemResetWarning,0825.9,4.99,000.00,019.0,018.3,000.0,027.2,020.4,13.5,0000.0,0000.57,0000.19,0000.11
2024-01-18 18:08:00,SystemResetWarning,0825.9,4.99,000.00,019.0,018.3,000.0,027.3,020.4,13.8,0000.0,0000.80,0000.20,0000.11
2024-01-18 18:09:00,SystemResetWarning,0825.9,5.00,000.00,019.0,018.4,000.0,027.3,020.4,14.1,0000.0,0001.60,0000.20,0000.11
2024-01-18 18:10:00,SystemResetWarning,0825.9,5.00,000.00,019.1,018.4,000.0,027.3,020.4,14.5,0000.0,0001.69,0000.24,0000.11
2024-01-18 18:11:00,SystemResetWarning,0826.2,5.00,000.00,019.1,018.4,000.0,027.3,020.5,13.7,0000.0,0001.66,0000.25,0000.11
2024-01-18 18:12:00,SystemResetWarning,0826.2,5.00,000.00,019.1,018.4,000.0,027.3,020.5,14.0,0000.0,0001.67,0000.26,0000.11
2024-01-18 18:13:00,SystemResetWarning,0826.2,5.00,000.00,019.1,018.4,000.0,027.3,020.5,14.3,0000.0,0001.69,0000.26,0000.11
2024-01-18 18:14:00,SystemResetWarning,0826.2,5.00,000.00,019.1,018.4,000.0,027.3,020.5,14.4,0000.0,0001.74,0000.28,0000.12
2024-01-18 18:15:00,SystemResetWarning,0826.4,5.00,000.00,019.1,018.4,000.0,027.4,020.5,14.4,0000.0,0001.63,0000.26,0000.12
2024-01-18 18:16:00,SystemResetWarning,0826.5,5.01,000.00,019.2,018.5,000.0,027.4,020.6,16.3,0000.0,0001.57,0000.26,0000.12
2024-01-18 18:17:00,SystemResetWarning,0826.8,5.01,000.00,019.2,018.5,000.0,027.4,020.6,16.7,0000.0,0001.59,0000.28,0000.12
2024-01-18 18:18:00,SystemResetWarning,0826.9,5.00,000.00,019.2,018.6,000.0,027.4,020.6,17.1,0000.0,0001.60,0000.28,0000.12
2024-01-18 18:19:00,SystemResetWarning,0826.9,5.00,000.00,019.2,018.6,000.0,027.4,020.6,17.4,0000.0,0001.62,0000.28,0000.12
2024-01-18 18:20:00,SystemResetWarning,0826.9,4.99,000.00,019.2,018.7,000.0,027.4,020.6,17.0,0000.0,0000.60,0000.27,0000.11
2024-01-18 18:21:00,SystemResetWarning,0826.9,5.00,000.00,019.2,018.7,000.0,027.4,020.7,16.6,0000.0,0000.55,0000.26,0000.11
2024-01-18 18:22:00,SystemResetWarning,0827.0,5.01,000.00,019.3,018.7,000.0,027.5,020.6,16.5,0000.0,0000.47,0000.24,0000.11
2024-01-18 18:23:00,SystemResetWarning,0827.2,5.01,000.00,019.3,018.7,000.0,027.5,020.6,16.5,0000.0,0000.47,0000.24,0000.11
2024-01-18 18:24:00,SystemResetWarning,0827.1,5.01,000.00,019.3,018.7,000.0,027.5,020.7,16.7,0000.0,0000.47,0000.24,0000.11
2024-01-18 18:25:00,SystemResetWarning,0827.1,4.99,000.00,019.3,018.7,000.0,027.5,020.7,16.5,0000.0,0000.41,0000.22,0000.11
2024-01-18 18:26:00,SystemResetWarning,0827.3,4.99,000.00,019.3,018.7,000.0,027.5,020.7,16.2,0000.0,0000.38,0000.21,0000.11
2024-01-18 18:27:00,SystemResetWarning,0827.4,5.00,000.00,019.3,018.7,000.0,027.5,020.7,16.3,0000.0,0000.36,0000.20,0000.12
2024-01-18 18:28:00,SystemResetWarning,0827.5,5.00,000.00,019.3,018.7,000.0,027.5,020.7,16.6,0000.0,0000.36,0000.20,0000.11
2024-01-18 18:29:00,SystemResetWarning,0827.6,5.00,000.00,019.3,018.7,000.0,027.5,020.7,16.4,0000.0,0000.35,0000.19,0000.11
2024-01-18 18:30:00,SystemResetWarning,0827.6,5.00,000.00,019.3,018.7,000.0,027.6,020.7,16.5,0000.0,0000.32,0000.19,0000.11
2024-01-18 18:31:00,SystemResetWarning,0827.7,5.00,000.00,019.3,018.7,000.0,027.6,020.7,16.3,0000.0,0000.36,0000.20,0000.10
2024-01-18 18:32:00,SystemResetWarning,0827.7,5.00,000.00,019.4,018.7,000.0,027.6,020.7,16.4,0000.0,0000.36,0000.20,0000.10
2024-01-18 18:33:00,SystemResetWarning,0827.6,5.00,000.00,019.4,018.8,000.0,027.6,020.7,16.2,0000.0,0000.35,0000.19,0000.10
2024-01-18 18:34:00,SystemResetWarning,0827.5,5.00,000.00,019.4,018.7,000.0,027.6,020.7,16.1,0000.0,0000.32,0000.18,0000.10
2024-01-18 18:35:00,SystemResetWarning,0827.4,5.00,000.00,019.4,018.7,000.0,027.6,020.7,16.4,0000.0,0000.83,0000.32,0000.19
2024-01-18 18:36:00,SystemResetWarning,0827.4,5.00,000.00,019.4,018.7,000.0,027.6,020.7,16.2,0000.0,0001.92,0000.89,0000.62
2024-01-18 18:37:00,SystemResetWarning,0827.4,5.00,000.00,019.4,018.7,000.0,027.6,020.7,15.8,0000.0,0004.99,0001.77,0001.26
2024-01-18 18:38:00,SystemResetWarning,0827.6,5.00,000.00,019.4,018.7,000.0,027.7,020.7,15.5,0000.0,0007.41,0002.71,0001.93
2024-01-18 18:39:00,SystemResetWarning,0827.7,4.99,000.00,019.4,018.7,000.0,027.7,020.7,15.8,0000.0,0009.05,0003.36,0002.51
2024-01-18 18:40:00,SystemResetWarning,0827.6,4.99,000.00,019.4,018.7,000.0,027.7,020.7,15.9,0000.0,0011.56,0003.70,0002.89
2024-01-18 18:41:00,SystemResetWarning,0827.7,5.00,000.00,019.4,018.7,000.0,027.7,020.7,15.6,0000.0,0014.32,0003.96,0003.10
2024-01-18 18:42:00,SystemResetWarning,0827.8,5.01,000.00,019.4,018.7,000.0,027.7,020.7,15.8,0000.0,0015.07,0004.18,0003.22
2024-01-18 18:43:00,SystemResetWarning,0827.8,5.00,000.00,019.4,018.7,000.0,027.7,020.7,15.7,0000.0,0016.75,0004.37,0003.32
2024-01-18 18:44:00,SystemResetWarning,0827.9,4.99,000.00,019.4,018.7,000.0,027.7,020.7,15.8,0000.0,0018.94,0004.56,0003.41
2024-01-18 18:45:00,SystemResetWarning,0828.1,4.99,000.00,019.4,018.7,000.0,027.7,020.7,16.0,0000.0,0019.66,0004.76,0003.48
2024-01-18 18:46:00,SystemResetWarning,0828.0,4.99,000.00,019.4,018.8,000.0,027.7,020.7,16.0,0000.0,0020.75,0004.92,0003.52
2024-01-18 18:47:00,SystemResetWarning,0828.1,5.00,000.00,019.4,018.8,000.0,027.7,020.8,15.6,0000.0,0021.57,0004.83,0003.37
2024-01-18 18:48:00,SystemResetWarning,0827.9,5.00,000.00,019.4,018.8,000.0,027.7,020.8,15.6,0000.0,0020.59,0004.54,0003.06
2024-01-18 18:49:00,SystemResetWarning,0827.9,5.00,000.00,019.4,018.8,000.0,027.7,020.8,15.3,0000.0,0019.49,0004.16,0002.51
2024-01-18 18:50:00,SystemResetWarning,0827.7,5.00,000.00,019.5,018.8,000.0,027.7,020.8,15.4,0000.0,0018.47,0003.78,0002.02
2024-01-18 18:51:00,SystemResetWarning,0827.8,5.00,000.00,019.5,018.8,000.0,027.7,020.8,15.6,0000.0,0017.56,0003.57,0001.72
2024-01-18 18:52:00,SystemResetWarning,0827.8,5.00,000.00,019.5,018.8,000.0,027.7,020.8,15.3,0000.0,0015.46,0003.48,0001.59
2024-01-18 18:53:00,SystemResetWarning,0828.0,5.00,000.00,019.5,018.8,000.0,027.7,020.8,15.3,0000.0,0015.29,0003.35,0001.47
2024-01-18 18:54:00,SystemResetWarning,0828.1,5.00,000.00,019.5,018.8,000.0,027.8,020.8,15.3,0000.0,0015.18,0003.30,0001.38
2024-01-18 18:55:00,SystemResetWarning,0828.2,5.00,000.00,019.5,018.8,000.0,027.8,020.8,15.3,0000.0,0013.93,0003.25,0001.30
2024-01-18 18:56:00,SystemResetWarning,0828.2,5.00,000.00,019.5,018.8,000.0,027.8,020.8,15.5,0000.0,0013.12,0003.16,0001.26
2024-01-18 18:57:00,SystemResetWarning,0828.2,5.01,000.00,019.5,018.8,000.0,027.8,020.8,15.8,0000.0,0012.52,0003.08,0001.23
2024-01-18 18:58:00,SystemResetWarning,0828.2,5.00,000.00,019.5,018.9,000.0,027.8,020.8,16.1,0000.0,0011.68,0002.95,0001.19
2024-01-18 18:59:00,SystemResetWarning,0828.2,5.00,000.00,019.5,018.9,000.0,027.8,020.8,16.1,0000.0,0012.16,0002.85,0001.17
